Date String (YYYY-MM-DD hh:mm:ss) UTC,Instrument flags,Ambient pressure (hPa),Sample flow (lpm),Bypass flow (lpm),Sample temperature (°C),Ambient temperature (°C),ASC tube jacket temperature (°C),LED temperature (°C),Box temperature (°C),Sample RH (%),Span deviation,Mass concentration (μg/m³),Mass concentration (μg/m³),Mass concentration (μg/m³)
DateTimeUTC,F1_M11,P_M11,Q1_M11,Q2_M11,T1_M11,T2_M11,T3_M11,T4_M11,T5_M11,U1_M11,ZSPAN_M11,X0_M11,X2_M11,X1_M11
2021-10-28 07:00:00,,0827.2,5.01,0.00,25.3,24.5,00.0,34.4,27.2,11.9,0000.0,0005.20,0001.27,0001.01
2021-10-28 07:01:00,,0827.2,5.01,0.00,25.3,24.6,00.0,34.4,27.2,12.0,0000.0,0005.03,0001.24,0001.01
2021-10-28 07:02:00,,0827.3,4.99,0.00,25.3,24.6,00.0,34.4,27.2,11.9,0000.0,0005.49,0001.24,0001.01
2021-10-28 07:03:00,,0827.3,5.00,0.00,25.3,24.6,00.0,34.4,27.2,11.6,0000.0,0004.37,0001.22,0001.01
2021-10-28 07:04:00,,0827.3,4.99,0.00,25.4,24.6,00.0,34.4,27.2,11.6,0000.0,0004.65,0001.25,0001.02
2021-10-28 07:05:00,,0827.4,4.99,0.00,25.4,24.7,00.0,34.4,27.2,11.5,0000.0,0004.57,0001.22,0001.02
2021-10-28 07:06:00,,0827.4,5.01,0.00,25.4,24.7,00.0,34.4,27.3,11.4,0000.0,0004.07,0001.21,0001.02
2021-10-28 07:07:00,,0827.4,5.00,0.00,25.4,24.7,00.0,34.4,27.3,11.4,0000.0,0004.06,0001.23,0001.01
2021-10-28 07:08:00,,0827.4,5.00,0.00,25.5,24.8,00.0,34.4,27.3,11.6,0000.0,0003.74,0001.26,0001.00
2021-10-28 07:09:00,,0827.4,5.01,0.00,25.5,24.8,00.0,34.4,27.4,11.6,0000.0,0003.24,0001.26,0001.00
2021-10-28 07:10:00,,0827.4,5.00,0.00,25.5,24.8,00.0,34.4,27.4,11.4,0000.0,0003.41,0001.27,0000.99
2021-10-28 07:11:00,,0827.4,5.02,0.00,25.5,24.8,00.0,34.5,27.4,11.4,0000.0,0003.68,0001.31,0000.99
2021-10-28 07:12:00,,0827.5,5.00,0.00,25.5,24.8,00.0,34.5,27.3,11.4,0000.0,0004.00,0001.34,0001.00
2021-10-28 07:13:00,,0827.5,4.99,0.00,25.5,24.8,00.0,34.5,27.4,11.4,0000.0,0003.81,0001.32,0000.99
2021-10-28 07:14:00,,0827.6,5.01,0.00,25.5,24.8,00.0,34.5,27.4,11.5,0000.0,0004.86,0001.34,0001.00
2021-10-28 07:15:00,,0827.6,4.99,0.00,25.6,24.8,00.0,34.5,27.4,11.5,0000.0,0004.72,0001.39,0001.02
2021-10-28 07:16:00,,0827.5,5.01,0.00,25.6,24.9,00.0,34.5,27.4,11.4,0000.0,0004.89,0001.47,0001.03
2021-10-28 07:17:00,,0827.5,5.00,0.00,25.6,24.9,00.0,34.5,27.4,11.3,0000.0,0004.82,0001.46,0001.04
2021-10-28 07:18:00,,0827.5,5.00,0.00,25.6,24.8,00.0,34.5,27.4,11.4,0000.0,0004.74,0001.43,0001.04
2021-10-28 07:19:00,,0827.5,4.99,0.00,25.6,24.9,00.0,34.5,27.4,11.4,0000.0,0004.59,0001.39,0001.05
2021-10-28 07:20:00,,0827.6,5.00,0.00,25.6,24.9,00.0,34.6,27.5,11.4,0000.0,0005.24,0001.40,0001.06
2021-10-28 07:21:00,,0827.5,5.00,0.00,25.6,24.9,00.0,34.6,27.5,11.4,0000.0,0004.94,0001.41,0001.06
2021-10-28 07:22:00,,0827.6,5.00,0.00,25.6,24.9,00.0,34.6,27.5,11.4,0000.0,0004.84,0001.43,0001.06
2021-10-28 07:23:00,,0827.5,5.01,0.00,25.6,24.9,00.0,34.6,27.5,11.4,0000.0,0004.60,0001.44,0001.07
2021-10-28 07:24:00,,0827.5,4.99,0.00,25.6,24.9,00.0,34.6,27.5,11.4,0000.0,0004.34,0001.47,0001.07
2021-10-28 07:25:00,,0827.7,5.00,0.00,25.7,24.9,00.0,34.6,27.5,11.4,0000.0,0002.97,0001.44,0001.07
2021-10-28 07:26:00,,0827.7,5.01,0.00,25.7,24.9,00.0,34.6,27.5,11.4,0000.0,0002.83,0001.37,0001.05
2021-10-28 07:27:00,,0827.6,5.00,0.00,25.7,24.9,00.0,34.6,27.5,11.3,0000.0,0002.65,0001.28,0001.03
2021-10-28 07:28:00,,0827.5,4.99,0.00,25.7,24.9,00.0,34.6,27.5,11.3,0000.0,0002.67,0001.28,0001.02
2021-10-28 07:29:00,,0827.5,4.99,0.00,25.7,24.9,00.0,34.7,27.5,11.2,0000.0,0002.64,0001.27,0001.01
2021-10-28 07:30:00,,0827.6,5.00,0.00,25.7,24.9,00.0,34.7,27.5,11.2,0000.0,0002.71,0001.28,0001.00
2021-10-28 07:31:00,,0827.5,5.00,0.00,25.7,24.9,00.0,34.7,27.6,11.2,0000.0,0002.09,0001.28,0001.01
2021-10-28 07:32:00,,0827.5,5.00,0.00,25.7,24.9,00.0,34.7,27.6,11.2,0000.0,0002.07,0001.28,0001.02
2021-10-28 07:33:00,,0827.6,5.01,0.00,25.7,24.9,00.0,34.7,27.6,11.2,0000.0,0001.99,0001.26,0001.01
2021-10-28 07:34:00,,0827.6,5.00,0.00,25.7,24.9,00.0,34.7,27.6,11.2,0000.0,0002.49,0001.25,0001.01
2021-10-28 07:35:00,,0827.7,4.99,0.00,25.8,24.9,00.0,34.7,27.6,11.2,0000.0,0004.06,0001.23,0001.01
2021-10-28 07:36:00,,0827.7,5.01,0.00,25.8,24.9,00.0,34.7,27.6,11.2,0000.0,0004.16,0001.26,0001.01
2021-10-28 07:37:00,,0827.7,5.00,0.00,25.8,24.9,00.0,34.7,27.6,11.2,0000.0,0004.33,0001.34,0001.03
2021-10-28 07:38:00,,0827.7,5.00,0.00,25.8,24.9,00.0,34.7,27.6,11.2,0000.0,0004.46,0001.39,0001.05
2021-10-28 07:39:00,,0827.7,4.99,0.00,25.8,24.9,00.0,34.7,27.6,11.4,0000.0,0004.44,0001.40,0001.05
2021-10-28 07:40:00,,0827.7,5.00,0.00,25.8,24.9,00.0,34.7,27.6,11.4,0000.0,0004.47,0001.41,0001.06
2021-10-28 07:41:00,,0827.7,5.00,0.00,25.8,25.0,00.0,34.7,27.6,11.5,0000.0,0004.50,0001.42,0001.07
2021-10-28 07:42:00,,0827.6,5.01,0.00,25.8,25.0,00.0,34.8,27.6,11.5,0000.0,0004.65,0001.41,0001.07
2021-10-28 07:43:00,,0827.5,5.00,0.00,25.8,25.0,00.0,34.8,27.6,11.5,0000.0,0005.70,0001.41,0001.08
2021-10-28 07:44:00,,0827.6,5.01,0.00,25.8,25.0,00.0,34.8,27.6,11.4,0000.0,0006.35,0001.43,0001.09
2021-10-28 07:45:00,,0827.6,5.00,0.00,25.8,25.0,00.0,34.8,27.6,11.4,0000.0,0005.97,0001.46,0001.08
2021-10-28 07:46:00,,0827.7,5.00,0.00,25.8,25.0,00.0,34.8,27.6,11.4,0000.0,0004.45,0001.51,0001.10
2021-10-28 07:47:00,,0827.7,5.01,0.00,25.8,24.9,00.0,34.8,27.6,11.4,0000.0,0004.49,0001.55,0001.11
2021-10-28 07:48:00,,0827.8,5.00,0.00,25.8,24.9,00.0,34.8,27.6,11.4,0000.0,0004.42,0001.51,0001.10
2021-10-28 07:49:00,,0827.8,4.99,0.00,25.8,24.9,00.0,34.8,27.6,11.4,0000.0,0005.40,0001.49,0001.09
2021-10-28 07:50:00,,0827.9,4.99,0.00,25.8,24.9,00.0,34.8,27.6,11.4,0000.0,0006.55,0001.57,0001.11
2021-10-28 07:51:00,,0827.9,5.01,0.00,25.8,24.9,00.0,34.8,27.6,11.4,0000.0,0007.20,0001.66,0001.12
2021-10-28 07:52:00,,0827.9,5.00,0.00,25.8,24.9,00.0,34.8,27.6,11.4,0000.0,0007.46,0001.70,0001.12
2021-10-28 07:53:00,,0827.9,5.00,0.00,25.8,24.9,00.0,34.8,27.6,11.4,0000.0,0008.22,0001.75,0001.12
2021-10-28 07:54:00,,0827.9,5.00,0.00,25.8,24.9,00.0,34.8,27.6,11.4,0000.0,0008.38,0001.75,0001.12
2021-10-28 07:55:00,,0827.9,5.00,0.00,25.8,24.9,00.0,34.8,27.6,11.4,0000.0,0008.49,0001.73,0001.12
2021-10-28 07:56:00,,0827.9,4.99,0.00,25.8,24.9,00.0,34.8,27.6,11.4,0000.0,0008.83,0001.74,0001.14
2021-10-28 07:57:00,,0827.9,5.01,0.00,25.8,24.9,00.0,34.8,27.6,11.4,0000.0,0009.12,0001.78,0001.14
2021-10-28 07:58:00,,0827.9,4.99,0.00,25.8,24.9,00.0,34.8,27.6,11.4,0000.0,0009.57,0001.75,0001.14
2021-10-28 07:59:00,,0827.9,5.01,0.00,25.8,24.9,00.0,34.8,27.6,11.4,0000.0,0009.59,0001.75,0001.14
